Zurück zum Katalog

STARLINK-36348

AktivKommunikationVLEO
NORAD 67851·PAYLOAD·🇺🇸 United States

Gestartet Feb 20, 2026 von Vandenberg Space Force Base

Loading…

Nächste Überflüge (nächste 24 Stunden)

TLE

AktuellSource: CelesTrak SupGP

Epoche: Sep 15, 2026, 03:33 UTC

1 67851C 26034B   26258.14840278  .00199250  00000+0  58711-2 0  2586
2 67851  53.1602  42.5238 0001476  96.9542  25.6947 15.34375572    19

Verfolge STARLINK-36348 in Echtzeit mit AllMySat

Download on the App Store